This is the latest recevied weather packets stored in our database for station/object KC1OEK-13. If no packets are shown the sender has not sent any weather packets the latest 10 day(s).
| Time | Temp. | Humidity | Pressure | Rain* | Wind** | Luminosity | Snow |
|---|---|---|---|---|---|---|---|
| 1777780998 | 7.22° C | 59% | 1013.1 hPa | 0 mm | - | 0 W/m² | - |
| 1777780695 | 6.67° C | 61% | 1013.2 hPa | 0 mm | - | 0 W/m² | - |
| 1777780392 | 7.22° C | 57% | 1012.9 hPa | 0 mm | - | 0 W/m² | - |
| 1777780089 | 7.22° C | 59% | 1012.9 hPa | 0 mm | - | 0 W/m² | - |
| 1777779786 | 7.22° C | 56% | 1012.8 hPa | 0 mm | - | 0 W/m² | - |
| 1777779483 | 7.22° C | 58% | 1013 hPa | 0 mm | - | 0 W/m² | - |
| 1777779181 | 7.78° C | 58% | 1013 hPa | 0 mm | - | 0 W/m² | - |
| 1777778879 | 7.78° C | 56% | 1013 hPa | 0 mm | - | 0 W/m² | - |
| 1777778578 | 7.78° C | 55% | 1013 hPa | 0 mm | - | 0 W/m² | - |
| 1777778274 | 7.78° C | 59% | 1012.9 hPa | 0 mm | - | 0 W/m² | - |
| 1777777972 | 7.78° C | 57% | 1012.7 hPa | 0 mm | - | 0 W/m² | - |
| 1777777668 | 7.78° C | 57% | 1013 hPa | 0 mm | - | 0 W/m² | - |
| 1777777365 | 7.78° C | 57% | 1013.1 hPa | 0 mm | - | 0 W/m² | - |
| 1777777062 | 7.78° C | 58% | 1013.1 hPa | 0 mm | - | 0 W/m² | - |
| 1777776759 | 7.22° C | 62% | 1013.2 hPa | 0 mm | - | 0 W/m² | - |
| 1777776456 | 7.22° C | 62% | 1013 hPa | 0 mm | - | 0 W/m² | - |
| 1777776153 | 7.78° C | 58% | 1013.2 hPa | 0 mm | - | 0 W/m² | - |
| 1777775850 | 7.78° C | 59% | 1013 hPa | 0 mm | - | 0 W/m² | - |
| 1777775547 | 7.78° C | 60% | 1013.1 hPa | 0 mm | - | 0 W/m² | - |
| 1777775242 | 7.78° C | 58% | 1013.1 hPa | 0 mm | - | 0 W/m² | - |
| 1777774937 | 7.22° C | 57% | 1013.3 hPa | 0 mm | - | 0 W/m² | - |
| 1777774634 | 7.22° C | 63% | 1013.2 hPa | 0 mm | - | 0 W/m² | - |
| 1777774330 | 7.22° C | 64% | 1013.3 hPa | 0 mm | - | 0 W/m² | - |
| 1777774028 | 7.22° C | 62% | 1013.4 hPa | 0 mm | - | 0 W/m² | - |
| 1777773725 | 7.22° C | 60% | 1013.3 hPa | 0 mm | - | 0 W/m² | - |
* Rain latest hour (hover to see other rain measurements)
** Current wind speed in m/s (hover to see current wind gust speed)